Location: Congrier
(47.8099°N, 1.1170°W)
Time: 15:30:30
(UTC+00:00)

Cosmos 2322 Rocket - Pass Details

Date: 28 January 2023
Orbit: 831 x 851 km, 71.0° (Epoch: 25 March)

Event Time Altitude Azimuth Distance (km) Brightness Sun altitude
Rises 18:03:14 0° 149° (SSE) 3,365 5.2 -11.0°
Reaches altitude 10° 18:07:03 10° 122° (ESE) 2,437 4.2 -11.6°
Enters shadow 18:09:03 13° 101° (E) 2,238 3.9 -12.0°
